Harvard, Illinois, United States (60033)
Lat: 42.42N, Lon: 88.61W
Wx Zone: ILZ005
Local Info
Past Weather Observations for Today

NOTE: This archive is for the closest National Weather Service station to Harvard. Information may differ from the station used for current weather conditions.

Click here for Long-term Archive

Time Weather Temperature Dewpoint Humidity Pressure Winds Precip Visibility
07:15
Clear
Fog And Mist
30°F / -1°C 30°F / -1°C 100% 30.21 in
(1023 mb)
Calm - 3SM
06:55
Clear
Fog And Mist
27°F / -3°C 27°F / -3°C 100% 30.21 in
(1023 mb)
Calm - 4SM
06:35
Clear
Fog And Mist
25°F / -4°C 25°F / -4°C 100% 30.21 in
(1023 mb)
Calm - 2 1/2SM
06:15
Mostly Cloudy
Fog
25°F / -4°C 25°F / -4°C 100% 30.21 in
(1023 mb)
Calm - 1/4SM
05:55
Overcast
Fog
25°F / -4°C 25°F / -4°C 100% 30.21 in
(1023 mb)
Calm - 1/4SM
05:35
Clear
Fog And Mist
27°F / -3°C 27°F / -3°C 100% 30.21 in
(1023 mb)
Calm - 2 1/2SM
05:15
Mostly Cloudy
Fog
25°F / -4°C 25°F / -4°C 100% 30.21 in
(1023 mb)
Calm - 1/2SM
04:55
Overcast
Fog
25°F / -4°C 25°F / -4°C 100% 30.21 in
(1023 mb)
Calm - 1/4SM
04:35
Overcast
Fog
27°F / -3°C 25°F / -4°C 93% 30.21 in
(1023 mb)
Calm - 1/4SM
04:15
Overcast
Fog
27°F / -3°C 27°F / -3°C 100% 30.21 in
(1023 mb)
Calm - 1/4SM
03:55
Partly Cloudy
Fog And Mist
27°F / -3°C 25°F / -4°C 93% 30.21 in
(1023 mb)
Calm - 5SM
03:35
Partly Cloudy
Fog And Mist
25°F / -4°C 25°F / -4°C 100% 30.21 in
(1023 mb)
Calm - 2 1/2SM
03:15
Obscured
Fog And Mist
27°F / -3°C 27°F / -3°C 100% 30.21 in
(1023 mb)
Calm - 1SM
02:55
Overcast
Fog And Mist
27°F / -3°C 27°F / -3°C 100% 30.21 in
(1023 mb)
Calm - 3/4SM
02:35
Overcast
Fog
27°F / -3°C 27°F / -3°C 100% 30.21 in
(1023 mb)
Calm - 1/4SM
02:15
Overcast
Fog
27°F / -3°C 27°F / -3°C 100% 30.21 in
(1023 mb)
Calm - 1/4SM
01:55
Overcast
Fog
27°F / -3°C 27°F / -3°C 100% 30.21 in
(1023 mb)
Calm - 1/2SM
01:35
Overcast
Fog
27°F / -3°C 27°F / -3°C 100% 30.24 in
(1024 mb)
Calm - 1/4SM
01:15
Mostly Cloudy
Fog And Mist
27°F / -3°C 27°F / -3°C 100% 30.24 in
(1024 mb)
Calm - 3/4SM
00:55
Overcast
Fog
27°F / -3°C 27°F / -3°C 100% 30.21 in
(1023 mb)
Calm - 1/4SM
00:35
Partly Cloudy
Fog
27°F / -3°C 27°F / -3°C 100% 30.24 in
(1024 mb)
Calm - 1/2SM
00:15
Obscured
Fog And Mist
28°F / -2°C 28°F / -2°C 100% 30.24 in
(1024 mb)
Calm - 3/4SM
Time Weather Temperature Dewpoint Humidity Pressure Winds Precip Visibility


Weather for websites

WeatherForYou.com, LLC is not responsible for any damages or problems caused by this service. Current weather conditions are obtained from the closest station including government and personal stations which may have varying degrees of accuracy. Weather forecasts are derived from the NOAA NDFD. Like all things, this site belongs to Jesus Christ... He just trusts me to maintain it. If you have any questions or comments email webmaster@weatherforyou.com

Copyright © 2014, WeatherForYou.com LLC. All rights reserved.